This is the latest recevied weather packets stored in our database for station/object VK6HGR-1. If no packets are shown the sender has not sent any weather packets the latest 10 day(s).
| Time | Temp. | Humidity | Pressure | Rain* | Wind** | Luminosity | Snow |
|---|---|---|---|---|---|---|---|
| 1777444211 | 23.89° C | 59% | 1010.6 hPa | - | - | - | - |
| 1777443311 | 23.89° C | 58% | 1010.7 hPa | - | - | - | - |
| 1777442411 | 23.89° C | 58% | 1010.7 hPa | - | - | - | - |
| 1777441512 | 23.89° C | 58% | 1010.8 hPa | - | - | - | - |
| 1777440611 | 23.89° C | 57% | 1010.9 hPa | - | - | - | - |
| 1777439713 | 23.89° C | 59% | 1011.1 hPa | - | - | - | - |
| 1777438811 | 23.33° C | 59% | 1011.2 hPa | - | - | - | - |
| 1777437916 | 23.89° C | 60% | 1011.3 hPa | - | - | - | - |
| 1777437013 | 23.33° C | 61% | 1011.5 hPa | - | - | - | - |
| 1777436110 | 23.33° C | 60% | 1011.8 hPa | - | - | - | - |
| 1777435214 | 23.33° C | 62% | 1011.9 hPa | - | - | - | - |
| 1777434312 | 22.78° C | 63% | 1012.2 hPa | - | - | - | - |
| 1777433412 | 22.78° C | 66% | 1012.3 hPa | - | - | - | - |
| 1777432512 | 22.22° C | 66% | 1012.4 hPa | - | - | - | - |
| 1777431615 | 21.67° C | 67% | 1012.3 hPa | - | - | - | - |
| 1777430711 | 21.67° C | 69% | 1012.4 hPa | - | - | - | - |
| 1777429817 | 21.11° C | 70% | 1012.6 hPa | - | - | - | - |
| 1777428911 | 20.56° C | 72% | 1012.8 hPa | - | - | - | - |
| 1777428012 | 20° C | 74% | 1012.9 hPa | - | - | - | - |
| 1777427112 | 20° C | 74% | 1013 hPa | - | - | - | - |
| 1777426213 | 19.44° C | 76% | 1013.1 hPa | - | - | - | - |
| 1777425311 | 18.89° C | 77% | 1013.1 hPa | - | - | - | - |
| 1777424411 | 18.33° C | 78% | 1012.9 hPa | - | - | - | - |
| 1777423510 | 18.33° C | 79% | 1013.1 hPa | - | - | - | - |
| 1777422613 | 17.78° C | 80% | 1013.2 hPa | - | - | - | - |
* Rain since midnight (hover to see other rain measurements)
** Current wind speed in m/s (hover to see current wind gust speed)